Regional Weather Roundup
Issued by NWS

Home | Current Version | Previous Version | Text Only | Print | Product List | Glossary On
Versions: 1 2 3 4 5 6 7 8 9 10 11 12 13 14 15 16 17 18 19 20 21 22 23 24 25 26 27 28 29 30 31 32 33 34 35 36 37 38 39 40 41 42 43 44 45 46 47 48 49 50
000
ASUS44 KOUN 032110
RWROK

WEATHER ROUNDUP FOR OKLAHOMA
NATIONAL WEATHER SERVICE NORMAN OK
400 PM CDT SUN MAY 03 2015

NOTE: "FAIR" INDICATES FEW OR NO CLOUDS BELOW 12,000 FEET WITH NO
      SIGNIFICANT WEATHER AND/OR OBSTRUCTIONS TO VISIBILITY.

OKZ001>007-009>012-014-015-017-032200-
NORTHWEST OKLAHOMA AND THE PANHANDLE

CITY           SKY/WX    TMP DP  RH WIND       PRES   REMARKS
GAGE           SUNNY     86  49  27 S28G35    29.84F
GUYMON         SUNNY     86  42  21 S9        29.82F
ENID/WOODRING  CLOUDY    75  61  60 S23G33    29.87S
$$

OKZ016-021>023-033>039-044-045-032200-
SOUTHWEST OKLAHOMA

CITY           SKY/WX    TMP DP  RH WIND       PRES   REMARKS
LAWTON/REGL    SUNNY     82  58  43 S16G23    29.91F
LAWTON/FT SILL SUNNY     81  61  49 S16G23    29.91F
FREDERICK      SUNNY     83  55  38 S16G29    29.88F
CLINTON        SUNNY     81  56  42 S21G29    29.90F
HOBART         SUNNY     81  59  47 S20G29    29.90F
ALTUS AFB      SUNNY     83  59  43 S20G28    29.89F
$$

OKZ018>020-024>031-032200-
CENTRAL OKLAHOMA

CITY           SKY/WX    TMP DP  RH WIND       PRES   REMARKS
OKLAHOMA CITY  CLOUDY    81  58  45 S20G25    29.92F
OKC/WILEY POST CLOUDY    79  59  50 S17G25    29.91F
OKC/TINKER AFB CLOUDY    76  57  50 S15       29.92F
STILLWATER     CLOUDY    79  58  48 S18G26    29.90F
GUTHRIE        CLOUDY    81  56  42 S16G29    29.90F
$$

OKZ008-013-054>072-032200-
NORTHEAST OKLAHOMA

CITY           SKY/WX    TMP DP  RH WIND       PRES   REMARKS
TULSA          PTSUNNY   81  58  45 S18G26    29.91S
TULSA/JONES    PTSUNNY   82  57  42 S16G25    29.93S
PONCA CITY     PTSUNNY   83  57  41 S13G25    29.88S
BARTLESVILLE   PTSUNNY   82  57  42 S18G26    29.90S
MUSKOGEE       PTSUNNY   80  57  45 S16G24    29.95F
$$

OKZ032-040>043-046>053-073>077-032200-
SOUTH CENTRAL/SOUTHEAST OKLAHOMA

CITY           SKY/WX    TMP DP  RH WIND       PRES   REMARKS
ARDMORE/DWNTWN SUNNY     79  45  29 S13G20    29.95F
MCALESTER      MOSUNNY   82  56  40 SE14G22   29.97F
$$



USA.gov is the U.S. government's official web portal to all federal, state and local government web resources and services.